LiveATC.Net - Listen to live air traffic control over the Internet!


ICAO: ESDF  IATA: RNB   Airport: Ronneby Airport
City: Ronneby
Country: Sweden   Continent: Europe
ESDF METAR Weather: ESDF 040220Z AUTO 02005KT 9999 NCD 04/04 Q1004
ESDF Flight Activity (FlightAware)

ESDF Gnd/Twr
Feed Status: UP   Listeners: 0
Listen in your browser - HTML5 player (in browser, HTML5)
Click here to listen with your own player (launches your MP3 player)
Archive Access: ESDF Gnd/Twr
FacilityFrequency
Ronneby Ground121.850
Ronneby Tower119.200

ESDF Ronneby Control
Feed Status: UP   Listeners: 1
Listen in your browser - HTML5 player (in browser, HTML5)
Click here to listen with your own player (launches your MP3 player)
Archive Access: ESDF Ronneby Control
FacilityFrequency
Ronneby Control128.450

NOTICE

Unauthorized use prohibited. See LiveATC.net Terms of Service


Airport/ARTCC Code
Frequency Search
(e.g., 124.400, 128.75)
Site-wide search
 


Browse Feeds
Top 50 Feeds
Coverage Map
Bad Weather Areas

LiveATC FAQ
Offer LiveATC feed
Contact LiveATC.net
Press Inquiries

LiveATC on iPhone
LiveATC on Android

Windows Phone
Windows 8/10

LiveATC Mobile
(Mobile browser)

ATC Audio Archives
Interesting Recordings

LiveATC Forums


Home Page
About LiveATC.net
Make a Donation
Terms of Use
Privacy Policy

Canadian Air Freqs

AIRMETs/SIGMETs

FAA Airport Status
Nat'l Airspace Status
Arrival Demand Charts


Server Software By:
Icecast.org
Liquidsoap